DateTimeUTC,F1_A11,F1_S11,BsB_S11,BsG_S11,BsR_S11,BbsB_S11,BbsG_S11,BbsR_S11,BaB_A11,BaG_A11,BaR_A11,Tu_S11,T_S11,Uu_S11,U_S11,P_S11,T1_A11
2021-08-17T19:00:00Z,00000200,20000000,,,,,,,-000.18,-000.33,-000.10,19.8,26.5,07.8,05.2,0677.9,31.1
2021-08-17T19:01:00Z,00000200,20000000,,,,,,,0000.15,0000.09,0000.17,19.8,26.5,07.8,05.2,0677.9,31.1
2021-08-17T19:02:00Z,00000200,20000000,,,,,,,-000.04,0000.09,-000.04,19.8,26.5,07.8,05.2,0677.9,31.1
2021-08-17T19:03:00Z,00000200,60000000,,,,,,,0001.43,0001.47,0000.93,19.8,26.5,07.8,05.2,0677.9,31.1
2021-08-17T19:04:00Z,00000200,40000000,0009.41,0008.07,0005.23,0000.77,0000.93,0000.84,0002.14,0001.72,0001.78,19.9,26.3,07.6,05.2,0678.8,31.1
2021-08-17T19:05:00Z,00000200,00000000,0008.95,0007.54,0004.91,0001.46,0000.77,0000.60,0001.68,0001.69,0001.16,20.0,26.3,07.6,05.2,0678.9,31.1
2021-08-17T19:06:00Z,00000200,00000000,0009.06,0007.11,0004.98,0001.76,0000.78,0000.72,0001.99,0002.02,0001.50,20.0,26.3,07.7,05.2,0678.9,31.1
2021-08-17T19:07:00Z,00000200,00000000,0009.05,0007.40,0005.61,0000.96,0001.05,0000.95,0002.48,0002.13,0002.01,20.0,26.3,07.7,05.2,0678.9,31.1
2021-08-17T19:08:00Z,00000200,00000000,0008.81,0007.13,0005.04,0001.58,0000.88,0000.96,0001.89,0001.65,0001.16,20.0,26.3,07.8,05.3,0678.9,31.1
2021-08-17T19:09:00Z,00000200,00000000,0009.01,0007.26,0004.91,0001.33,0000.79,0001.08,0001.88,0001.58,0001.73,20.0,26.3,07.7,05.3,0678.9,31.1
2021-08-17T19:10:00Z,00000200,00000000,0008.62,0007.93,0005.00,0001.33,0000.98,0000.84,0002.09,0002.15,0001.18,20.0,26.3,07.7,05.3,0678.9,31.1
2021-08-17T19:11:00Z,00000200,00000000,0009.57,0007.59,0004.87,0001.23,0000.76,0000.93,0001.99,0001.53,0001.28,20.0,26.2,07.7,05.3,0678.9,31.1
2021-08-17T19:12:00Z,00000200,00000000,0009.11,0007.21,0005.18,0000.63,0000.89,0001.06,0001.85,0001.62,0001.64,20.0,26.3,07.7,05.3,0678.9,31.1
2021-08-17T19:13:00Z,00000200,00000000,0009.56,0007.39,0004.63,0000.65,0000.80,0000.45,0002.05,0002.30,0001.53,20.0,26.3,07.7,05.3,0678.9,31.1
2021-08-17T19:14:00Z,00000200,00000000,0009.10,0007.64,0005.08,0001.08,0000.99,0000.65,0002.05,0001.83,0001.42,20.0,26.3,07.7,05.3,0678.9,31.1
2021-08-17T19:15:00Z,00000200,00000000,0008.68,0007.93,0005.00,0000.88,0001.05,0001.07,0002.16,0001.53,0001.64,20.0,26.2,07.7,05.2,0679.0,31.1
2021-08-17T19:16:00Z,00000200,00000000,0009.43,0007.51,0005.12,0001.28,0000.82,0000.91,0001.84,0002.16,0001.22,20.0,26.2,07.7,05.3,0679.0,31.1
2021-08-17T19:17:00Z,00000200,00000000,0008.98,0008.03,0005.15,0001.50,0001.08,0000.93,0002.32,0001.90,0001.68,20.0,26.2,07.7,05.2,0679.0,31.1
2021-08-17T19:18:00Z,00000200,00000000,0010.00,0007.62,0005.41,0001.17,0000.76,0001.13,0001.91,0002.31,0001.65,20.0,26.2,07.7,05.3,0679.0,31.1
2021-08-17T19:19:00Z,00000200,00000000,0009.08,0008.03,0005.17,0001.23,0000.94,0000.71,0002.09,0001.59,0001.48,20.0,26.2,07.7,05.3,0679.0,31.1
2021-08-17T19:20:00Z,00000200,00000000,0009.70,0007.66,0004.91,0001.74,0000.66,0000.85,0002.04,0001.80,0001.58,20.0,26.2,07.7,05.3,0679.0,31.1
2021-08-17T19:21:00Z,00000200,00000000,0009.64,0007.26,0005.44,0000.75,0001.03,0000.89,0001.90,0001.84,0001.28,20.0,26.2,07.7,05.2,0679.0,31.1
2021-08-17T19:22:00Z,00000200,00000000,0009.11,0007.62,0005.15,0001.47,0000.85,0000.62,0002.17,0002.04,0001.64,20.0,26.2,07.7,05.3,0679.0,31.1
2021-08-17T19:23:00Z,00000200,00000000,0009.37,0007.98,0005.21,0001.11,0000.78,0000.96,0002.18,0002.03,0001.33,20.0,26.2,07.7,05.3,0679.0,31.1
2021-08-17T19:24:00Z,00000200,00000000,0009.82,0007.77,0005.22,0000.69,0000.97,0000.87,0002.20,0001.41,0001.66,20.0,26.2,07.7,05.3,0679.0,31.1
2021-08-17T19:25:00Z,00000200,00000000,0009.65,0008.26,0005.17,0000.88,0000.86,0000.89,0002.05,0002.56,0001.83,20.0,26.2,07.7,05.3,0679.0,31.1
2021-08-17T19:26:00Z,00000200,00000000,0010.10,0008.51,0005.77,0001.33,0000.71,0001.02,0002.46,0002.31,0001.67,20.0,26.2,07.8,05.3,0679.0,31.1
2021-08-17T19:27:00Z,00000200,00000000,0009.74,0008.50,0005.51,0000.78,0000.69,0000.54,0002.08,0001.75,0001.17,20.0,26.2,07.8,05.4,0679.0,31.1
2021-08-17T19:28:00Z,00000200,00000000,0010.77,0008.16,0005.40,0001.55,0000.99,0001.03,0002.11,0002.13,0002.12,20.0,26.2,07.7,05.3,0679.0,31.1
2021-08-17T19:29:00Z,00000200,00000000,0009.21,0008.22,0005.51,0001.41,0001.14,0001.10,0002.47,0001.98,0001.18,20.0,26.2,07.7,05.3,0679.0,31.1
2021-08-17T19:30:00Z,00000200,00000000,0009.76,0007.89,0005.10,0001.55,0000.84,0000.76,0002.16,0002.28,0001.93,20.0,26.2,07.8,05.4,0679.0,31.1
2021-08-17T19:31:00Z,00000200,00000000,0010.55,0007.79,0005.73,0001.09,0000.82,0000.83,0002.33,0001.93,0001.71,20.0,26.2,07.8,05.4,0679.0,31.1
2021-08-17T19:32:00Z,00000200,00000000,0009.54,0008.49,0005.73,0000.90,0001.06,0001.28,0001.97,0002.08,0001.80,20.0,26.2,07.8,05.4,0679.0,31.1
2021-08-17T19:33:00Z,00000200,00000000,0009.85,0008.62,0005.87,0001.36,0001.01,0001.30,0002.51,0002.07,0001.44,20.0,26.2,07.9,05.4,0679.0,31.1
2021-08-17T19:34:00Z,00000200,00000000,0010.56,0007.95,0005.47,0000.99,0000.98,0001.12,0002.18,0002.00,0001.70,20.0,26.2,07.9,05.4,0679.0,31.1
2021-08-17T19:35:00Z,00000200,00000000,0010.23,0008.46,0005.79,0001.18,0000.86,0001.14,0002.32,0002.27,0001.61,20.0,26.2,07.9,05.4,0679.0,31.1
2021-08-17T19:36:00Z,00000200,00000000,0010.52,0008.40,0005.39,0001.15,0000.84,0000.78,0001.92,0002.10,0001.61,20.0,26.2,07.9,05.4,0679.0,31.1
2021-08-17T19:37:00Z,00000200,00000000,0009.70,0008.19,0005.57,0001.03,0000.75,0000.73,0002.59,0001.99,0001.79,20.0,26.2,07.9,05.4,0679.0,31.1
2021-08-17T19:38:00Z,00000200,00000000,0009.73,0008.14,0005.84,0000.95,0000.75,0000.99,0002.07,0002.14,0001.42,20.0,26.2,07.8,05.4,0679.0,31.1
2021-08-17T19:39:00Z,00000200,00000000,0010.12,0008.15,0005.82,0001.39,0000.75,0001.01,0002.34,0001.83,0001.90,19.9,26.2,07.9,05.4,0679.0,31.1
2021-08-17T19:40:00Z,00000200,00000000,0009.40,0007.73,0004.93,0000.84,0000.99,0001.06,0002.14,0001.93,0001.62,19.9,26.2,07.8,05.4,0679.0,31.1
2021-08-17T19:41:00Z,00000200,00000000,0008.52,0007.19,0004.92,0000.22,0001.13,0000.84,0001.82,0001.86,0001.17,19.9,26.2,07.8,05.4,0678.9,31.1
2021-08-17T19:42:00Z,00000200,00000000,0008.64,0006.82,0004.79,0001.59,0000.84,0000.74,0002.09,0001.96,0001.51,20.0,26.2,07.8,05.4,0678.9,31.1
2021-08-17T19:43:00Z,00000200,00000000,0009.58,0006.96,0004.58,0000.87,0000.95,0000.80,0002.16,0001.80,0001.65,19.9,26.2,07.8,05.4,0678.9,31.1
2021-08-17T19:44:00Z,00000200,00000000,0007.76,0007.47,0004.79,0000.32,0000.80,0000.69,0001.93,0001.75,0001.45,19.9,26.2,07.8,05.4,0679.0,31.1
2021-08-17T19:45:00Z,00000200,00000000,0008.83,0007.43,0004.93,0001.22,0000.69,0000.89,0001.88,0001.82,0001.35,19.9,26.2,07.9,05.4,0678.9,31.1
2021-08-17T19:46:00Z,00000200,00000000,0009.20,0007.02,0004.88,0000.98,0000.79,0000.93,0001.47,0001.94,0001.31,19.9,26.2,07.9,05.4,0678.9,31.1
2021-08-17T19:47:00Z,00000200,00000000,0009.63,0007.20,0004.61,0001.07,0001.13,0000.66,0002.23,0001.70,0001.38,19.9,26.2,07.9,05.4,0678.9,31.1
2021-08-17T19:48:00Z,00000200,00000000,0008.17,0007.08,0005.18,0001.05,0000.81,0000.56,0002.15,0001.68,0001.73,19.9,26.2,07.9,05.4,0678.9,31.1
2021-08-17T19:49:00Z,00000200,00000000,0009.11,0007.21,0005.13,0000.92,0000.60,0001.00,0001.94,0002.15,0001.44,19.9,26.2,07.9,05.4,0678.9,31.1
2021-08-17T19:50:00Z,00000200,00000000,0008.79,0007.10,0004.97,0000.73,0000.59,0000.87,0002.12,0001.68,0001.48,19.9,26.1,07.9,05.4,0678.9,31.1
2021-08-17T19:51:00Z,00000200,00000000,0009.13,0006.80,0004.78,0001.33,0000.71,0000.95,0001.84,0002.30,0001.15,19.9,26.2,08.0,05.4,0678.9,31.1
2021-08-17T19:52:00Z,00000200,00000000,0008.89,0007.04,0004.74,0001.04,0000.57,0000.88,0001.99,0001.47,0001.65,19.9,26.2,08.0,05.5,0678.9,31.1
2021-08-17T19:53:00Z,00000200,00000000,0009.07,0007.04,0004.80,0000.83,0000.49,0001.10,0001.91,0001.74,0001.50,19.9,26.2,07.9,05.4,0678.9,31.1
2021-08-17T19:54:00Z,00000200,00000000,0008.84,0007.01,0004.76,0001.57,0000.86,0001.04,0001.77,0001.61,0001.22,19.9,26.2,08.0,05.5,0678.9,31.1
2021-08-17T19:55:00Z,00000200,00000000,0008.06,0007.09,0005.02,0001.23,0000.88,0000.81,0002.11,0002.09,0001.48,19.9,26.2,08.0,05.5,0678.8,31.1
2021-08-17T19:56:00Z,00000200,00000000,0009.39,0007.14,0004.78,0001.76,0000.80,0000.66,0001.74,0001.39,0001.42,19.9,26.1,08.0,05.5,0678.8,31.1
2021-08-17T19:57:00Z,00000200,40000000,,,,,,,0000.88,0000.97,0000.56,19.9,26.2,07.6,05.2,0678.9,31.1
2021-08-17T19:58:00Z,00000200,60000000,,,,,,,-000.06,-000.21,-000.18,19.6,26.3,08.1,05.3,0677.9,31.1
2021-08-17T19:59:00Z,00000200,20000000,,,,,,,-000.18,-000.59,-000.24,19.6,26.4,07.9,05.2,0677.9,31.1
